Weather History for KOLY - May, 2013

Change the Weather History Date:

Saturday, May 18, 2013

  Actual Average (KEVV) Record (KEVV)
Temperature  
Mean Temperature 71 °F 66 °F  
Max Temperature 80 °F 77 °F 93 °F (1962)
Min Temperature 62 °F 55 °F 41 °F (2002)
Degree Days  
Heating Degree Days 0 2  
Month to date heating degree days 66  
Since 1 July heating degree days 4521  
Cooling Degree Days 6 4  
Month to date cooling degree days 43  
Year to date cooling degree days 70  
Growing Degree Days 21 (Base 50)    
Moisture  
Dew Point 65 °F    
Average Humidity 85    
Maximum Humidity 100    
Minimum Humidity 61    
Precipitation  
Precipitation 0.00 in 0.17 in 2.61 in (1928)
Month to date precipitation 3.14  
Year to date precipitation 18.02  
Snow  
Snow 0.00 in 0.00 in 0.00 in (2002)
Month to date snowfall 0.0  
Since 1 July snowfall 11.8  
Snow Depth -    
Sea Level Pressure  
Sea Level Pressure 29.98 in    
Wind  
Wind Speed 3 mph (East)    
Max Wind Speed 8 mph    
Max Gust Speed -    
Visibility 7 miles    
Events      
T = Trace of Precipitation, MM = Missing Value Source: NWS Daily Summary

Daily Weather History Graph

Daily Weather History Graph

Search for Another Location

Airport or City:

Trip Planner

Search our weather history database for the weather conditions in past years. The results will help you decide how hot, cold, wet, or windy it might be!

Date:

Astronomy

May. 18, 2013 Rise Set
Actual Time 5:37 AM CDT 8:00 PM CDT
Civil Twilight 5:07 AM CDT 8:31 PM CDT
Nautical Twilight 4:30 AM CDT 9:08 PM CDT
Astronomical Twilight 3:49 AM CDT 9:49 PM CDT
Moon 1:08 PM CDT (5/18) 1:25 AM CDT (5/18)
Length of Visible Light 15h 23m
Length of Day
14h 23m
First Quarter, 55% of the Moon is Illuminated
May 18
First Quarter
May 24
Full
May 31
Last Quarter
Jun 8
New
Jun 16
First Quarter

Hourly Weather History & Observations

Time (CDT) Temp. Heat Index Dew Point Humidity Pressure Visibility Wind Dir Wind Speed Gust Speed Precip Events Conditions
12:15 AM 64.4 °F - 62.6 °F 94% 29.99 in 7.0 mi East 3.5 mph - N/A   Clear
12:35 AM 64.4 °F - 62.6 °F 94% 29.99 in 7.0 mi Calm Calm - N/A   Clear
12:55 AM 64.4 °F - 64.4 °F 100% 29.98 in 5.0 mi ESE 3.5 mph - N/A   Clear
1:15 AM 64.4 °F - 64.4 °F 100% 29.98 in 5.0 mi Calm Calm - N/A   Clear
1:35 AM 64.4 °F - 64.4 °F 100% 29.98 in 5.0 mi Calm Calm - N/A   Clear
1:55 AM 62.6 °F - 62.6 °F 100% 29.99 in 5.0 mi East 3.5 mph - N/A   Scattered Clouds
2:15 AM 62.6 °F - 62.6 °F 100% 29.99 in 3.0 mi Calm Calm - N/A   Mostly Cloudy
2:35 AM 64.4 °F - 64.4 °F 100% 29.99 in 3.0 mi Calm Calm - N/A   Overcast
2:55 AM 64.4 °F - 64.4 °F 100% 29.99 in 3.0 mi Calm Calm - N/A   Overcast
3:15 AM 64.4 °F - 64.4 °F 100% 29.99 in 5.0 mi Calm Calm - N/A   Overcast
3:35 AM 64.4 °F - 64.4 °F 100% 29.99 in 5.0 mi Calm Calm - N/A   Overcast
3:55 AM 64.4 °F - 64.4 °F 100% 29.99 in 5.0 mi Calm Calm - N/A   Overcast
4:15 AM 64.4 °F - 64.4 °F 100% 29.99 in 7.0 mi Calm Calm - N/A   Scattered Clouds
4:35 AM 62.6 °F - 62.6 °F 100% 29.99 in 4.0 mi Calm Calm - N/A   Mostly Cloudy
4:55 AM 64.4 °F - 64.4 °F 100% 29.99 in 7.0 mi Calm Calm - N/A   Overcast
5:15 AM 64.4 °F - 64.4 °F 100% 29.99 in 7.0 mi ENE 3.5 mph - N/A   Overcast
5:35 AM 64.4 °F - 64.4 °F 100% 30.00 in 5.0 mi ENE 4.6 mph - N/A   Overcast
5:55 AM 64.4 °F - 64.4 °F 100% 30.00 in 4.0 mi ENE 4.6 mph - N/A   Mostly Cloudy
6:15 AM 64.4 °F - 64.4 °F 100% 30.00 in 3.0 mi East 3.5 mph - N/A   Scattered Clouds
6:35 AM 64.4 °F - 64.4 °F 100% 30.01 in 4.0 mi NE 3.5 mph - N/A   Scattered Clouds
6:55 AM 64.4 °F - 64.4 °F 100% 30.01 in 4.0 mi ENE 3.5 mph - N/A   Mostly Cloudy
7:15 AM 66.2 °F - 64.4 °F 94% 30.01 in 4.0 mi ENE 3.5 mph - N/A   Overcast
7:35 AM 66.2 °F - 66.2 °F 100% 30.01 in 5.0 mi ENE 3.5 mph - N/A   Overcast
7:55 AM 69.8 °F - 64.4 °F 83% 30.01 in 7.0 mi East 5.8 mph - N/A   Overcast
8:15 AM 69.8 °F - 64.4 °F 83% 30.02 in 10.0 mi East 4.6 mph - N/A   Overcast
8:35 AM 69.8 °F - 64.4 °F 83% 30.02 in 10.0 mi East 4.6 mph - N/A   Overcast
8:55 AM 71.6 °F - 64.4 °F 78% 30.02 in 10.0 mi ESE 5.8 mph - N/A   Overcast
9:15 AM 73.4 °F - 64.4 °F 73% 30.02 in 10.0 mi ESE 4.6 mph - N/A   Mostly Cloudy
9:35 AM 71.6 °F - 64.4 °F 78% 30.02 in 10.0 mi East 5.8 mph - N/A   Overcast
9:55 AM 73.4 °F - 64.4 °F 73% 30.02 in 10.0 mi East 4.6 mph - N/A   Overcast
10:15 AM 73.4 °F - 64.4 °F 73% 30.02 in 10.0 mi East 5.8 mph - N/A   Overcast
10:35 AM 73.4 °F - 64.4 °F 73% 30.02 in 10.0 mi ESE 8.1 mph - N/A   Overcast
10:55 AM 73.4 °F - 64.4 °F 73% 30.02 in 10.0 mi ESE 8.1 mph - N/A   Overcast
11:15 AM 73.4 °F - 64.4 °F 73% 30.02 in 10.0 mi East 5.8 mph - N/A   Overcast
11:35 AM 75.2 °F - 64.4 °F 69% 30.02 in 10.0 mi East 8.1 mph - N/A   Mostly Cloudy
11:55 AM 75.2 °F - 64.4 °F 69% 30.01 in 7.0 mi East 5.8 mph - N/A   Mostly Cloudy
12:15 PM 75.2 °F - 64.4 °F 69% 30.01 in 10.0 mi ESE 5.8 mph - N/A   Mostly Cloudy
12:35 PM 77.0 °F - 66.2 °F 69% 30.00 in 10.0 mi East 5.8 mph - N/A   Scattered Clouds
12:55 PM 77.0 °F - 64.4 °F 65% 30.00 in 7.0 mi East 4.6 mph - N/A   Mostly Cloudy
1:15 PM 77.0 °F - 66.2 °F 69% 29.99 in 7.0 mi East 5.8 mph - N/A   Mostly Cloudy
1:35 PM 77.0 °F - 66.2 °F 69% 29.98 in 7.0 mi East 8.1 mph - N/A   Mostly Cloudy
1:55 PM 77.0 °F - 66.2 °F 69% 29.98 in 7.0 mi East 6.9 mph - N/A   Scattered Clouds
2:15 PM 77.0 °F - 66.2 °F 69% 29.98 in 7.0 mi ENE 5.8 mph - N/A   Scattered Clouds
2:35 PM 75.2 °F - 66.2 °F 73% 29.98 in 7.0 mi East 3.5 mph - N/A   Mostly Cloudy
2:55 PM 77.0 °F - 66.2 °F 69% 29.97 in 7.0 mi East 5.8 mph - N/A   Mostly Cloudy
3:15 PM 77.0 °F - 64.4 °F 65% 29.97 in 10.0 mi East 5.8 mph - N/A   Mostly Cloudy
3:35 PM 77.0 °F - 66.2 °F 69% 29.97 in 10.0 mi SE 4.6 mph - N/A   Mostly Cloudy
3:55 PM 75.2 °F - 66.2 °F 73% 29.97 in 7.0 mi East 4.6 mph - N/A   Mostly Cloudy
4:15 PM 75.2 °F - 66.2 °F 73% 29.96 in 7.0 mi East 3.5 mph - N/A   Mostly Cloudy
4:35 PM 75.2 °F - 66.2 °F 73% 29.96 in 7.0 mi ESE 4.6 mph - N/A   Overcast
4:55 PM 77.0 °F - 64.4 °F 65% 29.96 in 10.0 mi SSE 4.6 mph - N/A   Overcast
5:15 PM 75.2 °F - 64.4 °F 69% 29.96 in 10.0 mi SE 5.8 mph - N/A   Overcast
5:35 PM 75.2 °F - 66.2 °F 73% 29.96 in 10.0 mi Calm Calm - N/A   Mostly Cloudy
5:55 PM 80.6 °F 82.7 °F 66.2 °F 61% 29.95 in 10.0 mi South 3.5 mph - N/A   Mostly Cloudy
6:15 PM 75.2 °F - 66.2 °F 73% 29.96 in 10.0 mi Calm Calm - N/A   Mostly Cloudy
6:35 PM 75.2 °F - 66.2 °F 73% 29.95 in 10.0 mi Calm Calm - N/A   Scattered Clouds
6:55 PM 77.0 °F - 66.2 °F 69% 29.95 in 10.0 mi Calm Calm - N/A   Clear
7:15 PM 75.2 °F - 66.2 °F 73% 29.95 in 10.0 mi Calm Calm - N/A   Clear
7:35 PM 73.4 °F - 66.2 °F 78% 29.95 in 10.0 mi Calm Calm - N/A   Clear
7:55 PM 71.6 °F - 66.2 °F 83% 29.95 in 10.0 mi Calm Calm - N/A   Clear
8:15 PM 69.8 °F - 66.2 °F 88% 29.95 in 10.0 mi Calm Calm - N/A   Clear
8:35 PM 68.0 °F - 66.2 °F 94% 29.95 in 10.0 mi Calm Calm - N/A   Clear
8:55 PM 68.0 °F - 66.2 °F 94% 29.95 in 7.0 mi Calm Calm - N/A   Clear
9:15 PM 66.2 °F - 66.2 °F 100% 29.95 in 5.0 mi Calm Calm - N/A   Clear
9:35 PM 66.2 °F - 66.2 °F 100% 29.95 in 5.0 mi Calm Calm - N/A   Clear
9:55 PM 66.2 °F - 66.2 °F 100% 29.96 in 5.0 mi Calm Calm - N/A   Clear
10:15 PM 64.4 °F - 64.4 °F 100% 29.96 in 4.0 mi Calm Calm - N/A   Clear
10:35 PM 64.4 °F - 64.4 °F 100% 29.95 in 3.0 mi Calm Calm - N/A   Clear
10:55 PM 64.4 °F - 64.4 °F 100% 29.94 in 2.5 mi Calm Calm - N/A   Clear
11:15 PM 64.4 °F - 64.4 °F 100% 29.93 in 3.0 mi East 4.6 mph - N/A   Clear
11:55 PM 64.4 °F - 64.4 °F 100% 29.93 in 4.0 mi Calm Calm - N/A   Clear